Location: Platte
(43.3870°N, 98.8440°W)
Time: 14:28:45
(UTC-05:00)

Daily predictions for brighter satellites

Satellite Brightness Start Highest point End
(mag) Time Altitude Azimuth Time Altitude Azimuth Time Altitude Azimuth
Cosmos 1777 Rocket 4.4 21:48:13 10° S 21:53:12 45° ESE 21:58:13 10° NNE
Cosmos 1743 Rocket 3.6 21:50:50 10° S 21:55:18 83° E 21:59:47 10° N
USA 186 4.0 21:55:09 10° SW 21:56:40 15° W 21:58:13 10° NW
ARGOS 4.2 21:56:31 10° SE 22:01:11 31° ENE 22:05:50 10° N
Cosmos 1500 Rocket 3.6 21:57:44 10° S 22:02:03 67° E 22:06:26 10° NNE
BREEZE-M DEB (TANK) 4.2 22:00:35 10° NW 22:02:25 20° N 22:04:03 10° NE
deb Chang Zheng 4 3.6 21:58:35 10° NNE 22:02:57 87° E 22:07:17 10° SSW
H-2A R/B 3.9 22:01:52 10° ESE 22:05:25 18° ENE 22:09:01 10° NNE
CZ-2C R/B 1.9 22:06:09 10° SSW 22:07:40 25° W 22:09:12 10° NW
Cosmos 2219 4.2 22:04:09 10° SSE 22:08:48 26° ESE 22:13:27 10° NE
Cosmos 1441 Rocket 3.2 22:07:17 10° S 22:11:03 89° W 22:14:50 10° N
ATLAS CENTAUR R/B 3.2 22:08:02 10° NW 22:11:56 28° WSW 22:15:32 10° S
PSLV R/B 3.2 22:10:23 10° SSE 22:13:27 66° ENE 22:16:31 10° N
Cosmos 2322 4.0 22:09:55 10° NNW 22:15:36 58° ENE 22:20:54 12° SE
SPOT 1/Viking Rocket 4.0 22:12:09 10° SE 22:17:03 47° ENE 22:21:59 10° N
Cosmos 2237 Rocket 4.4 22:14:39 10° NNE 22:17:34 14° NE 22:20:27 10° ENE
Cosmos 1726 3.9 22:17:26 10° NNE 22:20:08 18° ENE 22:22:28 11° ESE
Cosmos 1680 Rocket 3.8 22:15:01 10° NNW 22:20:12 55° ENE 22:24:52 12° SE
Cosmos 2322 Rocket 3.1 22:16:11 10° NW 22:21:32 46° WSW 22:26:51 10° S
Cosmos 923 Rocket 4.0 22:18:17 10° NNW 22:23:32 76° ENE 22:28:22 12° SSE
AVUM R/B 2.4 22:25:13 10° SSW 22:27:28 57° ESE 22:29:56 10° NE
USA 245 2.9 22:26:25 16° SE 22:28:13 38° ENE 22:30:30 10° N
Cosmos 1515 Rocket 4.3 22:24:07 10° NNW 22:28:28 54° W 22:32:45 10° S
Cosmos 1908 3.3 22:24:48 10° N 22:28:42 80° W 22:32:36 10° S
Cosmos 304 Rocket 3.9 22:24:00 10° NNW 22:28:50 67° ENE 22:32:54 14° SSE
Cosmos 1939 Rocket 4.0 22:26:02 10° S 22:29:47 40° W 22:33:29 10° NNW
SL-16 R/B 3.2 22:25:32 10° NW 22:30:50 42° WSW 22:36:08 10° S
Cosmos 2360 Rocket 2.2 22:26:52 10° NNW 22:32:34 80° ENE 22:37:27 14° SSE
CZ-4B R/B 3.7 22:28:08 10° NNE 22:33:23 59° E 22:38:30 10° S
NOAA 11 4.4 22:31:17 13° SE 22:35:57 56° ENE 22:41:17 10° N
Cosmos 2315 Rocket 4.1 22:30:34 10° N 22:36:46 66° E 22:42:17 13° SSE
Cosmos 2266 Rocket 4.2 22:36:55 10° S 22:43:15 79° W 22:49:30 10° N
Cosmos 1633 Rocket 4.0 22:42:16 18° SE 22:44:46 30° E 22:48:36 10° NNE
Sich 1 3.9 22:42:31 18° SE 22:45:10 33° E 22:49:08 10° NNE
Cosmos 1674 3.5 22:46:30 10° SSW 22:50:14 52° W 22:54:02 10° N
Cosmos 2151 3.1 22:47:28 10° SSW 22:51:40 78° W 22:55:53 10° N
Cosmos 1437 Rocket 4.3 22:48:35 10° NNW 22:52:00 32° W 22:55:25 10° SSW
USA 229 DEB 4.0 22:46:00 10° SW 22:52:55 75° NW 22:59:58 10° NE
Aureole 3 4.5 22:45:59 10° S 22:52:58 87° E 22:58:34 10° N
USA 229 4.0 22:46:06 10° SW 22:53:02 75° NW 23:00:05 10° NE
Terra 2.7 22:51:23 18° SE 22:54:20 37° ENE 22:58:42 10° N
Meteor 1-4 Rocket 3.7 22:53:31 10° N 22:56:57 31° ENE 22:58:33 22° ESE
Cosmos 1805 Rocket 3.5 22:54:12 14° S 22:57:57 72° E 23:02:24 10° NNE
Cosmos 1300 2.7 22:54:09 10° N 22:58:00 67° E 23:00:11 24° SSE
Cosmos 1151 Rocket 4.0 22:54:05 10° NNW 22:58:10 43° W 23:02:15 10° SSW
Cosmos 2227 Rocket 3.7 22:57:46 16° ESE 22:59:03 17° E 23:02:36 10° ENE
Cosmos 1626 4.2 22:59:43 13° E 23:00:10 14° E 23:02:06 10° NE
SeaSat 1 4.4 22:58:52 10° E 23:02:20 20° NE 23:05:48 10° N
Cosmos 1244 Rocket 4.5 22:56:56 11° S 23:02:58 74° E 23:09:15 10° NNE
Cosmos 2333 Rocket 3.5 22:58:10 10° N 23:03:12 30° NE 23:07:11 15° ESE
CZ-4 R/B 3.8 22:58:13 10° NNE 23:03:13 80° ESE 23:07:46 12° S
USA 32 4.4 22:58:16 10° N 23:03:23 50° E 23:06:29 23° SSE
SL-16 R/B 4.4 23:05:29 10° N 23:08:49 16° NE 23:12:08 10° E
CZ-4C R/B 2.9 23:07:42 29° SSE 23:09:20 75° ENE 23:12:49 10° N
NOSS 3-1 (A) 3.7 23:07:22 12° S 23:12:34 45° ESE 23:18:39 10° NE
COSMOS 2428 2.7 23:09:23 10° NNW 23:15:07 86° ENE 23:18:35 25° SSE
Cosmos 1707 Rocket 3.6 23:10:48 10° N 23:15:09 78° W 23:17:49 23° S
Cosmos 1666 Rocket 3.5 23:16:58 20° S 23:19:59 90° N 23:24:26 10° N
Cosmos 1455 3.4 23:17:38 10° NNE 23:20:57 28° ENE 23:21:56 24° ESE
Cosmos 1745 Rocket 4.2 23:17:11 22° SSE 23:21:05 55° E 23:27:07 10° NNE
Cosmos 2058 3.4 23:19:08 13° SSW 23:22:39 56° W 23:26:43 10° N
DELTA 2 R/B (1) 4.1 23:19:21 10° W 23:24:31 40° SSW 23:26:42 28° SSE
SL-23 DEB 4.2 23:21:55 10° WNW 23:26:18 45° SW 23:27:14 35° S
Cosmos 2297 Rocket 3.5 23:25:45 20° ESE 23:26:35 20° E 23:30:36 10° NE
Cosmos 2298 Rocket 4.0 23:22:19 16° SSW 23:26:40 78° ESE 23:32:00 10° NNE
Cosmos 1470 Rocket 3.8 23:31:55 35° SE 23:33:18 49° E 23:37:29 10° NNE
Cosmos 1933 Rocket 3.9 23:33:20 34° SE 23:34:50 50° E 23:39:09 10° NNE
ATLAS 2AS CENTAUR R/B 3.7 23:32:38 25° SE 23:35:21 31° ESE 23:42:06 10° NE
Cosmos 2219 Rocket 2.3 23:30:01 10° NNW 23:35:35 64° ENE 23:38:24 29° SE
Cosmos 2237 4.5 23:31:05 10° NNW 23:36:45 62° WSW 23:39:52 27° S
COSMOS 2455 4.3 23:32:29 10° NNW 23:37:37 28° NE 23:42:07 12° E
Cosmos 1937 Rocket 3.5 23:36:51 28° S 23:39:32 62° ESE 23:44:41 10° NNE
Cosmos 220 Rocket 4.1 23:38:59 38° SSE 23:40:21 55° ESE 23:44:41 10° NNE
ARGOS 4.2 23:37:20 16° SSW 23:41:17 38° W 23:46:19 10° NNW
SL-14 R/B 4.1 23:40:46 19° SW 23:43:18 47° WNW 23:47:11 10° N
H-2A R/B 2.3 23:41:19 27° S 23:44:14 69° WSW 23:49:40 10° NNW
Cosmos 1703 3.2 23:42:49 38° S 23:44:16 86° W 23:48:12 10° N
IGS 5A 3.5 23:43:55 37° S 23:45:28 74° WSW 23:49:40 10° NNW
Cosmos 1271 Rocket 3.0 23:45:07 10° NNW 23:48:54 62° W 23:50:04 40° SSW
Cosmos 1980 3.9 23:43:37 10° NNW 23:49:14 60° ENE 23:51:50 31° SE
Cosmos 2242 Rocket 4.1 23:47:42 10° NNW 23:52:03 53° W 23:54:03 29° SSW
Cosmos 1386 Rocket 4.4 23:49:17 30° S 23:52:19 70° E 23:58:18 10° NNE
Cosmos 2219 4.1 23:47:03 10° SW 23:52:37 49° WNW 23:58:13 10° NNE
Cosmos 1726 3.7 23:52:14 10° NNW 23:55:34 30° W 23:57:09 21° SW
